Location: Belfast
(54.5830°N, 5.9330°W)
Time: 13:41:41
(UTC+00:00)

ISS - Pass Details

Date: 10 November 2018
Orbit: 401 x 408 km, 51.6° (Epoch: 16 November)

Event Time Altitude Azimuth Distance (km) Brightness Sun altitude
Exits shadow 06:31:24 11° 249° (WSW) 1,378 -1.6 -10.5°
Maximum altitude 06:33:13 16° 213° (SSW) 1,135 -1.7 -10.3°
Drops below altitude 10° 06:35:22 10° 171° (S) 1,461 -0.7 -10.0°
Sets 06:37:57 0° 150° (SSE) 2,319 0.8 -9.6°
